Home   Weather   Rzeszów   Past weeks

Flag for Poland Past Weather in Rzeszów, Poland — Yesterday and Last 2 Weeks

Now
75 °F

Sunny.


Feels Like: 77 °F
Forecast: 65 / 79 °F
Wind: 10 mph from Southeast

Location: Rzeszow-Jasionka

Current Time: Jul 23, 2017 at 10:58:46 am

Latest Report: Jul 23, 2017 at 10:00 am


Visibility: 10 mi

Pressure: 29.95 "Hg

Humidity: 69%

Dew Point: 64 °F

Location of RzeszówLocation

Past Weather in Rzeszów — Graph

°F

Rzeszów Temperature Yesterday

Maximum temperature yesterday: 82 °F (at 3:00 pm)
Minimum temperature yesterday: 59 °F (at 3:30 am)
Average temperature yesterday: 71 °F

High & Low Weather Summary for the Past Weeks

 TemperatureHumidityPressure
High90 °F (Jul 20, 2:00 pm)100% (Jul 8, 6:30 pm)30.18 "Hg (Jul 8, 6:30 pm)
Low48 °F (Jul 16, 4:00 am)31% (Jul 20, 1:30 pm)29.71 "Hg (Jul 13, 3:30 am)
Average67 °F74%29.98 "Hg
* Reported Jul 8 9:00 am — Jul 23 9:00 am, Rzeszów. Weather by CustomWeather, © 2017

Note: Actual official high and low records may vary slightly from our data, if they occured in-between our weather recording intervals... More about our weather records

Advertising

Rzeszów Weather History for the Previous 24 Hours

Scroll right to see more
 ConditionsComfort  
Time TempWeatherWind HumidityBarometerVisibility
9:00 am
Sun, Jul 23
68 °FPassing clouds.3 mph88%29.98 "HgN/A
8:30 am66 °FPassing clouds.5 mph88%29.98 "HgN/A
7:30 am63 °FSprinkles. Scattered clouds.5 mph100%29.98 "Hg4 mi
7:00 am63 °FSprinkles. Scattered clouds.5 mph100%29.98 "Hg4 mi
6:30 am63 °FSprinkles. Scattered clouds.1 mph94%29.98 "Hg4 mi
6:00 am63 °FPassing clouds.2 mph94%29.98 "HgN/A
5:30 am63 °FPassing clouds.2 mph94%29.98 "HgN/A
5:00 am63 °FPassing clouds.3 mph94%29.98 "HgN/A
4:30 am63 °FClear.5 mph94%29.98 "Hg10 mi
3:30 am63 °FClear.2 mph94%29.98 "Hg10 mi
3:00 am61 °FClear.3 mph100%29.98 "Hg10 mi
2:30 am61 °FClear.1 mph94%29.98 "Hg10 mi
2:00 am61 °FClear.1 mph100%29.98 "Hg10 mi
1:00 am63 °FClear.2 mph94%30.01 "Hg10 mi
12:30 am63 °FClear.3 mph94%30.01 "Hg10 mi
12:00 am63 °FClear.1 mph94%30.01 "Hg10 mi
11:30 pm
Sat, Jul 22
63 °FClear.2 mph94%30.01 "Hg10 mi
11:00 pm64 °FClear.3 mph94%30.01 "Hg10 mi
10:30 pm66 °FClear.1 mph88%30.01 "Hg10 mi
10:00 pm66 °FClear.2 mph88%30.01 "Hg10 mi
9:30 pm70 °FClear.2 mph78%30.01 "Hg10 mi
9:00 pm72 °FClear.2 mph69%30.01 "Hg10 mi
8:30 pm75 °FClear.5 mph61%29.98 "Hg10 mi
8:00 pm77 °FSunny.5 mph57%29.98 "Hg10 mi
7:30 pm79 °FSunny.7 mph51%29.95 "Hg10 mi
7:00 pm79 °FSunny.5 mph54%29.95 "Hg10 mi
6:30 pm79 °FPassing clouds.5 mph54%29.98 "HgN/A
6:00 pm81 °FPassing clouds.5 mph45%29.98 "HgN/A
5:30 pm79 °FSunny.5 mph54%29.98 "Hg10 mi
5:00 pm79 °FPassing clouds.3 mph48%29.98 "HgN/A
4:30 pm81 °FSunny.1 mph45%30.01 "Hg10 mi
4:00 pm82 °FPassing clouds.5 mph45%30.01 "HgN/A
3:30 pm82 °FPassing clouds.5 mph42%30.01 "HgN/A
3:00 pm82 °FScattered clouds.3 mph45%30.01 "HgN/A
2:30 pm79 °FScattered clouds.6 mph51%30.01 "HgN/A
2:00 pm79 °FScattered clouds.5 mph54%30.01 "HgN/A
1:30 pm79 °FPassing clouds.3 mph58%30.01 "HgN/A
1:00 pm77 °FPartly sunny.6 mph61%30.01 "HgN/A
12:30 pm75 °FScattered clouds.6 mph61%30.01 "HgN/A
12:00 pm75 °FScattered clouds.3 mph61%30.04 "HgN/A
11:30 am77 °FScattered clouds.6 mph61%30.01 "HgN/A
11:00 am75 °FPartly sunny.6 mph65%30.04 "HgN/A
10:30 am73 °FPartly sunny.5 mph69%30.04 "HgN/A
10:00 am72 °FPartly sunny.2 mph73%30.01 "HgN/A
Weather by CustomWeather, © 2017

See weather overviewHow to use our weather pages